PRIVATE WETTERSTATION BILLIGHEIM-ALLFELD                       ZURCK
Wetterdaten: Freitag, 18.08.2017
Datum Zeit Temp. A. Temp. A. min Temp. A. max Feuchte A. Luftdruck Regen Wind Richtung Richtung Sonnenschein ET Solar Taupunkt Windchill Windben Empfang
18.08.2017 00:00 18,6 C 18,6 C 18,7 C 87 % 1016,0 hPa 0,0 l/m 0,0 km/h (0 Bft) W 277 0 min 0,000 mm 0 W/m 16,4 C 18,6 C 0,0 km/h (0 Bft) 100 %
18.08.2017 00:10 18,6 C 18,6 C 18,6 C 87 % 1016,0 hPa 0,0 l/m 0,0 km/h (0 Bft) W 277 0 min 3,175 mm 0 W/m 16,4 C 18,6 C 0,0 km/h (0 Bft) 100 %
18.08.2017 00:20 18,5 C 18,5 C 18,6 C 86 % 1015,9 hPa 0,0 l/m 0,0 km/h (0 Bft) W 277 0 min 0,000 mm 0 W/m 16,1 C 18,5 C 0,0 km/h (0 Bft) 99 %
18.08.2017 00:30 18,4 C 18,4 C 18,5 C 87 % 1015,9 hPa 0,0 l/m 0,0 km/h (0 Bft) W 277 0 min 0,000 mm 0 W/m 16,2 C 18,4 C 0,0 km/h (0 Bft) 100 %
18.08.2017 00:40 18,2 C 18,2 C 18,4 C 87 % 1015,9 hPa 0,0 l/m 0,0 km/h (0 Bft) W 277 0 min 0,000 mm 0 W/m 16,0 C 18,2 C 0,0 km/h (0 Bft) 100 %
18.08.2017 00:50 18,1 C 18,1 C 18,2 C 87 % 1015,9 hPa 0,0 l/m 0,0 km/h (0 Bft) W 277 0 min 0,000 mm 0 W/m 15,9 C 18,1 C 0,0 km/h (0 Bft) 99 %
18.08.2017 01:00 17,8 C 17,8 C 18,1 C 87 % 1015,9 hPa 0,0 l/m 0,0 km/h (0 Bft) W 277 0 min 0,000 mm 0 W/m 15,6 C 17,8 C 0,0 km/h (0 Bft) 100 %
18.08.2017 01:10 17,7 C 17,7 C 17,9 C 87 % 1015,8 hPa 0,0 l/m 0,0 km/h (0 Bft) W 277 0 min 0,000 mm 0 W/m 15,5 C 17,7 C 0,0 km/h (0 Bft) 100 %
18.08.2017 01:20 17,6 C 17,6 C 17,7 C 87 % 1015,9 hPa 0,0 l/m 0,0 km/h (0 Bft) W 277 0 min 0,000 mm 0 W/m 15,4 C 17,6 C 0,0 km/h (0 Bft) 100 %
18.08.2017 01:30 17,5 C 17,5 C 17,6 C 88 % 1015,9 hPa 0,0 l/m 0,0 km/h (0 Bft) W 277 0 min 0,000 mm 0 W/m 15,5 C 17,5 C 0,0 km/h (0 Bft) 100 %
18.08.2017 01:40 17,6 C 17,5 C 17,6 C 88 % 1015,8 hPa 0,0 l/m 0,0 km/h (0 Bft) W 277 0 min 0,000 mm 0 W/m 15,6 C 17,6 C 0,0 km/h (0 Bft) 100 %
18.08.2017 01:50 17,7 C 17,6 C 17,7 C 88 % 1015,7 hPa 0,0 l/m 0,0 km/h (0 Bft) W 277 0 min 0,000 mm 0 W/m 15,7 C 17,7 C 0,0 km/h (0 Bft) 100 %
18.08.2017 02:00 17,6 C 17,6 C 17,7 C 88 % 1015,6 hPa 0,0 l/m 0,0 km/h (0 Bft) W 277 0 min 0,000 mm 0 W/m 15,6 C 17,6 C 0,0 km/h (0 Bft) 100 %
18.08.2017 02:10 17,4 C 17,4 C 17,6 C 88 % 1015,5 hPa 0,0 l/m 0,0 km/h (0 Bft) W 277 0 min 0,000 mm 0 W/m 15,4 C 17,4 C 0,0 km/h (0 Bft) 100 %
18.08.2017 02:20 17,3 C 17,3 C 17,4 C 88 % 1015,4 hPa 0,0 l/m 0,0 km/h (0 Bft) W 277 0 min 0,000 mm 0 W/m 15,3 C 17,3 C 0,0 km/h (0 Bft) 100 %
18.08.2017 02:30 17,3 C 17,3 C 17,3 C 88 % 1015,4 hPa 0,0 l/m 0,0 km/h (0 Bft) W 277 0 min 0,000 mm 0 W/m 15,3 C 17,3 C 0,0 km/h (0 Bft) 100 %
18.08.2017 02:40 17,2 C 17,2 C 17,3 C 88 % 1015,4 hPa 0,0 l/m 0,0 km/h (0 Bft) W 277 0 min 0,000 mm 0 W/m 15,2 C 17,2 C 0,0 km/h (0 Bft) 100 %
18.08.2017 02:50 17,1 C 17,1 C 17,2 C 88 % 1015,3 hPa 0,0 l/m 0,0 km/h (0 Bft) W 277 0 min 0,000 mm 0 W/m 15,1 C 17,1 C 0,0 km/h (0 Bft) 100 %
18.08.2017 03:00 16,9 C 16,9 C 17,1 C 88 % 1015,2 hPa 0,0 l/m 0,0 km/h (0 Bft) W 277 0 min 0,000 mm 0 W/m 14,9 C 16,9 C 0,0 km/h (0 Bft) 100 %
18.08.2017 03:10 16,8 C 16,8 C 16,9 C 88 % 1014,9 hPa 0,0 l/m 0,0 km/h (0 Bft) W 277 0 min 0,000 mm 0 W/m 14,8 C 16,8 C 0,0 km/h (0 Bft) 100 %
18.08.2017 03:20 16,7 C 16,7 C 16,8 C 88 % 1014,9 hPa 0,0 l/m 0,0 km/h (0 Bft) W 277 0 min 0,000 mm 0 W/m 14,7 C 16,7 C 0,0 km/h (0 Bft) 100 %
18.08.2017 03:30 16,6 C 16,6 C 16,7 C 88 % 1014,7 hPa 0,0 l/m 0,0 km/h (0 Bft) W 277 0 min 0,000 mm 0 W/m 14,6 C 16,6 C 0,0 km/h (0 Bft) 100 %
18.08.2017 03:40 16,4 C 16,4 C 16,6 C 88 % 1014,7 hPa 0,0 l/m 0,0 km/h (0 Bft) W 277 0 min 0,000 mm 0 W/m 14,4 C 16,4 C 0,0 km/h (0 Bft) 100 %
18.08.2017 03:50 16,3 C 16,3 C 16,4 C 88 % 1014,9 hPa 0,0 l/m 0,0 km/h (0 Bft) W 277 0 min 0,000 mm 0 W/m 14,3 C 16,3 C 0,0 km/h (0 Bft) 100 %
18.08.2017 04:00 16,2 C 16,2 C 16,3 C 88 % 1014,9 hPa 0,0 l/m 0,0 km/h (0 Bft) W 277 0 min 0,000 mm 0 W/m 14,2 C 16,2 C 0,0 km/h (0 Bft) 100 %
18.08.2017 04:10 16,1 C 16,1 C 16,2 C 88 % 1015,0 hPa 0,0 l/m 0,0 km/h (0 Bft) W 277 0 min 0,000 mm 0 W/m 14,1 C 16,1 C 0,0 km/h (0 Bft) 100 %
18.08.2017 04:20 16,0 C 15,9 C 16,1 C 88 % 1014,8 hPa 0,0 l/m 0,0 km/h (0 Bft) W 277 0 min 0,000 mm 0 W/m 14,0 C 16,0 C 0,0 km/h (0 Bft) 100 %
18.08.2017 04:30 15,9 C 15,9 C 16,0 C 88 % 1014,9 hPa 0,0 l/m 0,0 km/h (0 Bft) W 277 0 min 0,000 mm 0 W/m 13,9 C 15,9 C 0,0 km/h (0 Bft) 100 %
18.08.2017 04:40 15,8 C 15,8 C 15,9 C 88 % 1014,8 hPa 0,0 l/m 0,0 km/h (0 Bft) W 277 0 min 0,000 mm 0 W/m 13,8 C 15,8 C 0,0 km/h (0 Bft) 100 %
18.08.2017 04:50 15,8 C 15,8 C 15,8 C 89 % 1014,7 hPa 0,0 l/m 0,0 km/h (0 Bft) W 277 0 min 0,000 mm 0 W/m 14,0 C 15,8 C 0,0 km/h (0 Bft) 100 %
18.08.2017 05:00 15,8 C 15,8 C 15,8 C 89 % 1014,8 hPa 0,0 l/m 0,0 km/h (0 Bft) W 277 0 min 0,000 mm 0 W/m 14,0 C 15,8 C 0,0 km/h (0 Bft) 100 %
18.08.2017 05:10 15,7 C 15,7 C 15,8 C 88 % 1014,8 hPa 0,0 l/m 0,0 km/h (0 Bft) W 277 0 min 0,000 mm 0 W/m 13,7 C 15,7 C 0,0 km/h (0 Bft) 100 %
18.08.2017 05:20 15,7 C 15,7 C 15,7 C 88 % 1014,9 hPa 0,0 l/m 0,0 km/h (0 Bft) W 277 0 min 0,000 mm 0 W/m 13,7 C 15,7 C 0,0 km/h (0 Bft) 100 %
18.08.2017 05:30 15,6 C 15,6 C 15,7 C 89 % 1014,8 hPa 0,0 l/m 0,0 km/h (0 Bft) W 277 0 min 0,000 mm 0 W/m 13,8 C 15,6 C 0,0 km/h (0 Bft) 100 %
18.08.2017 05:40 15,6 C 15,6 C 15,6 C 89 % 1014,7 hPa 0,0 l/m 0,0 km/h (0 Bft) W 277 0 min 0,000 mm 0 W/m 13,8 C 15,6 C 0,0 km/h (0 Bft) 100 %
18.08.2017 05:50 15,5 C 15,5 C 15,6 C 89 % 1014,7 hPa 0,0 l/m 0,0 km/h (0 Bft) W 277 0 min 0,000 mm 0 W/m 13,7 C 15,5 C 0,0 km/h (0 Bft) 100 %
18.08.2017 06:00 15,4 C 15,4 C 15,5 C 89 % 1014,6 hPa 0,0 l/m 0,0 km/h (0 Bft) W 275 0 min 0,000 mm 0 W/m 13,6 C 15,4 C 0,0 km/h (0 Bft) 100 %
18.08.2017 06:10 15,4 C 15,4 C 15,4 C 89 % 1014,7 hPa 0,0 l/m 0,0 km/h (0 Bft) W 275 0 min 0,000 mm 0 W/m 13,6 C 15,4 C 0,0 km/h (0 Bft) 100 %
18.08.2017 06:20 15,4 C 15,4 C 15,4 C 89 % 1014,6 hPa 0,0 l/m 0,0 km/h (0 Bft) W 275 0 min 0,000 mm 0 W/m 13,6 C 15,4 C 0,0 km/h (0 Bft) 100 %
18.08.2017 06:30 15,4 C 15,4 C 15,4 C 89 % 1014,6 hPa 0,0 l/m 0,0 km/h (0 Bft) W 275 0 min 0,000 mm 5 W/m 13,6 C 15,4 C 0,0 km/h (0 Bft) 100 %
18.08.2017 06:40 15,4 C 15,4 C 15,4 C 89 % 1014,6 hPa 0,0 l/m 0,0 km/h (0 Bft) W 275 0 min 0,000 mm 23 W/m 13,6 C 15,4 C 0,0 km/h (0 Bft) 100 %
18.08.2017 06:50 15,4 C 15,4 C 15,4 C 89 % 1014,5 hPa 0,0 l/m 0,0 km/h (0 Bft) W 275 0 min 0,000 mm 33 W/m 13,6 C 15,4 C 0,0 km/h (0 Bft) 100 %
18.08.2017 07:00 15,6 C 15,4 C 15,6 C 89 % 1014,5 hPa 0,0 l/m 0,0 km/h (0 Bft) W 275 0 min 0,000 mm 51 W/m 13,8 C 15,6 C 0,0 km/h (0 Bft) 100 %
18.08.2017 07:10 15,8 C 15,6 C 15,8 C 89 % 1014,6 hPa 0,0 l/m 0,0 km/h (0 Bft) W 271 0 min 0,000 mm 54 W/m 14,0 C 15,8 C 1,6 km/h (1 Bft) 100 %
18.08.2017 07:20 15,9 C 15,8 C 15,9 C 89 % 1014,6 hPa 0,0 l/m 0,0 km/h (0 Bft) W 271 0 min 0,000 mm 62 W/m 14,1 C 15,9 C 0,0 km/h (0 Bft) 100 %
18.08.2017 07:30 16,1 C 15,9 C 16,1 C 89 % 1014,6 hPa 0,0 l/m 0,0 km/h (0 Bft) W 272 0 min 0,000 mm 49 W/m 14,3 C 16,1 C 0,0 km/h (0 Bft) 100 %
18.08.2017 07:40 16,2 C 16,1 C 16,2 C 89 % 1014,6 hPa 0,0 l/m 0,0 km/h (0 Bft) W 271 0 min 0,000 mm 77 W/m 14,4 C 16,2 C 0,0 km/h (0 Bft) 100 %
18.08.2017 07:50 16,6 C 16,2 C 16,6 C 89 % 1014,5 hPa 0,0 l/m 0,0 km/h (0 Bft) W 271 0 min 0,000 mm 88 W/m 14,8 C 16,6 C 0,0 km/h (0 Bft) 100 %
18.08.2017 08:00 16,8 C 16,6 C 16,8 C 89 % 1014,2 hPa 0,0 l/m 0,0 km/h (0 Bft) W 271 0 min 0,025 mm 77 W/m 15,0 C 16,8 C 1,6 km/h (1 Bft) 100 %
18.08.2017 08:10 17,2 C 16,8 C 17,2 C 89 % 1014,1 hPa 0,0 l/m 0,0 km/h (0 Bft) W 260 0 min 0,000 mm 95 W/m 15,4 C 17,2 C 0,0 km/h (0 Bft) 100 %
18.08.2017 08:20 17,3 C 17,2 C 17,3 C 89 % 1014,4 hPa 0,0 l/m 0,0 km/h (0 Bft) W 260 0 min 0,000 mm 139 W/m 15,5 C 17,3 C 0,0 km/h (0 Bft) 100 %
18.08.2017 08:30 17,6 C 17,3 C 17,6 C 89 % 1014,5 hPa 0,0 l/m 1,5 km/h (1 Bft) W-SW 253 0 min 0,000 mm 100 W/m 15,8 C 17,6 C 6,4 km/h (2 Bft) 100 %
18.08.2017 08:40 17,8 C 17,6 C 17,8 C 89 % 1014,3 hPa 0,0 l/m 1,7 km/h (1 Bft) SW 214 0 min 0,000 mm 69 W/m 16,0 C 17,8 C 6,4 km/h (2 Bft) 99 %
18.08.2017 08:50 18,0 C 17,7 C 18,0 C 89 % 1014,1 hPa 0,0 l/m 3,6 km/h (1 Bft) S-SO 153 10 min 0,000 mm 220 W/m 16,2 C 18,0 C 8,0 km/h (2 Bft) 100 %
18.08.2017 09:00 18,6 C 18,0 C 18,6 C 88 % 1014,2 hPa 0,0 l/m 3,9 km/h (1 Bft) S-SW 192 0 min 0,077 mm 142 W/m 16,6 C 18,6 C 8,0 km/h (2 Bft) 99 %
18.08.2017 09:10 18,8 C 18,6 C 18,8 C 89 % 1014,2 hPa 0,0 l/m 2,6 km/h (1 Bft) S 187 10 min 0,000 mm 232 W/m 16,9 C 18,8 C 6,4 km/h (2 Bft) 99 %
18.08.2017 09:20 19,1 C 18,7 C 19,1 C 89 % 1014,1 hPa 0,0 l/m 0,2 km/h (0 Bft) S 186 10 min 0,000 mm 214 W/m 17,2 C 19,1 C 4,8 km/h (1 Bft) 100 %
18.08.2017 09:30 19,4 C 19,1 C 19,4 C 88 % 1014,0 hPa 0,0 l/m 2,1 km/h (1 Bft) S 184 10 min 0,000 mm 188 W/m 17,4 C 19,4 C 6,4 km/h (2 Bft) 100 %
18.08.2017 09:40 19,6 C 19,4 C 19,6 C 87 % 1014,0 hPa 0,0 l/m 2,1 km/h (1 Bft) S 184 10 min 0,000 mm 179 W/m 17,4 C 19,6 C 6,4 km/h (2 Bft) 100 %
18.08.2017 09:50 19,7 C 19,6 C 19,7 C 86 % 1014,0 hPa 0,0 l/m 0,4 km/h (0 Bft) S 181 0 min 0,000 mm 120 W/m 17,3 C 19,7 C 4,8 km/h (1 Bft) 100 %
18.08.2017 10:00 19,7 C 19,7 C 19,7 C 86 % 1014,4 hPa 0,0 l/m 3,1 km/h (1 Bft) S-SO 159 10 min 0,101 mm 232 W/m 17,3 C 19,7 C 6,4 km/h (2 Bft) 100 %
18.08.2017 10:10 20,1 C 19,7 C 20,1 C 87 % 1014,4 hPa 0,0 l/m 0,9 km/h (0 Bft) S-SO 168 10 min 0,000 mm 278 W/m 17,9 C 20,1 C 6,4 km/h (2 Bft) 100 %
18.08.2017 10:20 20,4 C 20,1 C 20,4 C 86 % 1014,3 hPa 0,0 l/m 1,5 km/h (1 Bft) S-SO 167 10 min 0,000 mm 371 W/m 18,0 C 20,4 C 6,4 km/h (2 Bft) 100 %
18.08.2017 10:30 21,1 C 20,4 C 21,1 C 84 % 1014,2 hPa 0,0 l/m 3,9 km/h (1 Bft) S 169 10 min 0,000 mm 517 W/m 18,3 C 21,1 C 8,0 km/h (2 Bft) 100 %
18.08.2017 10:40 21,8 C 21,1 C 21,8 C 82 % 1014,1 hPa 0,0 l/m 3,3 km/h (1 Bft) S-SO 148 10 min 0,000 mm 392 W/m 18,6 C 21,8 C 11,3 km/h (2 Bft) 100 %
18.08.2017 10:50 22,3 C 21,8 C 22,3 C 82 % 1014,0 hPa 0,0 l/m 6,2 km/h (2 Bft) S-SW 192 10 min 0,000 mm 722 W/m 19,1 C 22,3 C 11,3 km/h (2 Bft) 100 %
18.08.2017 11:00 23,1 C 22,3 C 23,1 C 76 % 1014,0 hPa 0,0 l/m 4,5 km/h (1 Bft) S 182 10 min 0,280 mm 585 W/m 18,6 C 23,1 C 9,7 km/h (2 Bft) 100 %
18.08.2017 11:10 23,3 C 23,1 C 23,3 C 76 % 1013,9 hPa 0,0 l/m 6,5 km/h (2 Bft) S-SW 213 10 min 0,000 mm 512 W/m 18,8 C 23,3 C 16,1 km/h (3 Bft) 100 %
18.08.2017 11:20 23,6 C 23,3 C 23,6 C 76 % 1013,7 hPa 0,0 l/m 2,7 km/h (1 Bft) S-SW 206 10 min 0,000 mm 673 W/m 19,1 C 23,6 C 9,7 km/h (2 Bft) 100 %
18.08.2017 11:30 24,4 C 23,6 C 24,4 C 73 % 1013,9 hPa 0,0 l/m 2,2 km/h (1 Bft) S 184 10 min 0,000 mm 846 W/m 19,2 C 24,4 C 14,5 km/h (3 Bft) 100 %
18.08.2017 11:40 25,4 C 24,4 C 25,4 C 74 % 1013,6 hPa 0,0 l/m 1,6 km/h (1 Bft) SW 226 10 min 0,000 mm 851 W/m 20,4 C 25,4 C 16,1 km/h (3 Bft) 100 %
18.08.2017 11:50 25,9 C 25,4 C 25,9 C 69 % 1013,4 hPa 0,0 l/m 3,5 km/h (1 Bft) SW 219 10 min 0,000 mm 809 W/m 19,8 C 25,9 C 16,1 km/h (3 Bft) 100 %
18.08.2017 12:00 26,2 C 25,9 C 26,2 C 69 % 1013,3 hPa 0,0 l/m 5,2 km/h (1 Bft) SW 223 10 min 0,457 mm 793 W/m 20,0 C 26,2 C 16,1 km/h (3 Bft) 100 %
18.08.2017 12:10 26,6 C 26,2 C 26,6 C 65 % 1013,2 hPa 0,0 l/m 5,2 km/h (1 Bft) S 188 10 min 0,000 mm 802 W/m 19,5 C 26,6 C 16,1 km/h (3 Bft) 99 %
18.08.2017 12:20 26,7 C 26,5 C 26,7 C 62 % 1013,0 hPa 0,0 l/m 7,3 km/h (2 Bft) S-SW 200 10 min 0,000 mm 761 W/m 18,8 C 26,5 C 17,7 km/h (3 Bft) 100 %
18.08.2017 12:30 26,7 C 26,7 C 26,7 C 65 % 1012,8 hPa 0,0 l/m 7,2 km/h (2 Bft) W-SW 244 10 min 0,000 mm 817 W/m 19,6 C 26,5 C 22,5 km/h (4 Bft) 100 %
18.08.2017 12:40 26,9 C 26,7 C 26,9 C 62 % 1012,7 hPa 0,0 l/m 8,2 km/h (2 Bft) S-SW 213 10 min 0,000 mm 777 W/m 19,0 C 26,6 C 20,9 km/h (4 Bft) 100 %
18.08.2017 12:50 27,1 C 26,9 C 27,1 C 62 % 1012,7 hPa 0,0 l/m 9,0 km/h (2 Bft) SW 224 10 min 0,000 mm 823 W/m 19,2 C 26,6 C 19,3 km/h (3 Bft) 100 %
18.08.2017 13:00 27,2 C 27,1 C 27,2 C 62 % 1012,6 hPa 0,0 l/m 6,8 km/h (2 Bft) SW 218 10 min 0,533 mm 814 W/m 19,3 C 27,1 C 17,7 km/h (3 Bft) 100 %
18.08.2017 13:10 27,5 C 27,2 C 27,5 C 61 % 1012,5 hPa 0,0 l/m 4,5 km/h (1 Bft) W-NW 302 10 min 0,000 mm 821 W/m 19,3 C 27,5 C 14,5 km/h (3 Bft) 91 %
18.08.2017 13:20 27,8 C 27,5 C 27,8 C 62 % 1012,4 hPa 0,0 l/m 6,0 km/h (2 Bft) SW 224 10 min 0,000 mm 854 W/m 19,8 C 27,8 C 17,7 km/h (3 Bft) 100 %
18.08.2017 13:30 27,9 C 27,8 C 27,9 C 58 % 1012,4 hPa 0,0 l/m 9,2 km/h (2 Bft) W-SW 257 10 min 0,000 mm 726 W/m 18,9 C 27,5 C 27,4 km/h (4 Bft) 100 %
18.08.2017 13:40 27,7 C 27,7 C 27,9 C 57 % 1012,3 hPa 0,0 l/m 9,1 km/h (2 Bft) SW 234 10 min 0,000 mm 338 W/m 18,4 C 27,3 C 25,7 km/h (4 Bft) 100 %
18.08.2017 13:50 27,2 C 27,2 C 27,7 C 60 % 1012,0 hPa 0,0 l/m 4,7 km/h (1 Bft) SW 225 10 min 0,000 mm 568 W/m 18,7 C 27,2 C 16,1 km/h (3 Bft) 100 %
18.08.2017 14:00 27,1 C 27,1 C 27,2 C 61 % 1011,7 hPa 0,0 l/m 3,6 km/h (1 Bft) W 266 10 min 0,457 mm 336 W/m 18,9 C 27,1 C 14,5 km/h (3 Bft) 100 %
18.08.2017 14:10 27,0 C 27,0 C 27,1 C 60 % 1011,7 hPa 0,0 l/m 4,4 km/h (1 Bft) W 259 10 min 0,000 mm 285 W/m 18,6 C 27,0 C 14,5 km/h (3 Bft) 100 %
18.08.2017 14:20 26,9 C 26,8 C 27,0 C 62 % 1011,6 hPa 0,0 l/m 1,1 km/h (1 Bft) W-SW 250 10 min 0,000 mm 320 W/m 19,0 C 26,9 C 8,0 km/h (2 Bft) 100 %
18.08.2017 14:30 27,2 C 26,9 C 27,2 C 61 % 1011,4 hPa 0,0 l/m 3,7 km/h (1 Bft) S-SW 207 10 min 0,000 mm 942 W/m 19,0 C 27,2 C 17,7 km/h (3 Bft) 100 %
18.08.2017 14:40 27,7 C 27,2 C 27,7 C 60 % 1011,3 hPa 0,0 l/m 6,1 km/h (2 Bft) S-SW 204 10 min 0,000 mm 404 W/m 19,2 C 27,7 C 17,7 km/h (3 Bft) 100 %
18.08.2017 14:50 27,7 C 27,7 C 27,7 C 60 % 1011,0 hPa 0,0 l/m 2,1 km/h (1 Bft) W 269 10 min 0,000 mm 506 W/m 19,2 C 27,7 C 9,7 km/h (2 Bft) 99 %
18.08.2017 15:00 27,7 C 27,7 C 27,7 C 59 % 1010,9 hPa 0,0 l/m 4,5 km/h (1 Bft) W 281 10 min 0,356 mm 287 W/m 18,9 C 27,7 C 17,7 km/h (3 Bft) 100 %
18.08.2017 15:10 27,5 C 27,5 C 27,7 C 60 % 1010,9 hPa 0,0 l/m 4,3 km/h (1 Bft) W-NW 290 10 min 0,000 mm 299 W/m 19,0 C 27,5 C 11,3 km/h (2 Bft) 100 %
18.08.2017 15:20 27,6 C 27,5 C 27,6 C 62 % 1010,8 hPa 0,0 l/m 2,7 km/h (1 Bft) W-NW 302 10 min 0,000 mm 652 W/m 19,6 C 27,6 C 11,3 km/h (2 Bft) 100 %
18.08.2017 15:30 27,8 C 27,6 C 27,8 C 61 % 1010,8 hPa 0,0 l/m 3,1 km/h (1 Bft) W-NW 300 10 min 0,000 mm 557 W/m 19,6 C 27,8 C 12,9 km/h (3 Bft) 100 %
18.08.2017 15:40 27,9 C 27,8 C 27,9 C 60 % 1010,5 hPa 0,0 l/m 6,1 km/h (2 Bft) W 262 10 min 0,000 mm 292 W/m 19,4 C 27,9 C 14,5 km/h (3 Bft) 100 %
18.08.2017 15:50 27,8 C 27,8 C 27,9 C 62 % 1010,5 hPa 0,0 l/m 4,6 km/h (1 Bft) W-NW 301 10 min 0,000 mm 267 W/m 19,8 C 27,8 C 11,3 km/h (2 Bft) 100 %
18.08.2017 16:00 27,3 C 27,3 C 27,8 C 61 % 1010,4 hPa 0,0 l/m 5,7 km/h (1 Bft) NW 318 10 min 0,279 mm 234 W/m 19,1 C 27,3 C 16,1 km/h (3 Bft) 100 %
18.08.2017 16:10 26,8 C 26,8 C 27,3 C 64 % 1010,3 hPa 0,0 l/m 3,1 km/h (1 Bft) W-NW 291 0 min 0,000 mm 113 W/m 19,4 C 26,8 C 9,7 km/h (2 Bft) 100 %
18.08.2017 16:20 26,4 C 26,4 C 26,8 C 65 % 1010,1 hPa 0,0 l/m 3,4 km/h (1 Bft) NW 317 0 min 0,000 mm 127 W/m 19,3 C 26,4 C 9,7 km/h (2 Bft) 100 %
18.08.2017 16:30 26,0 C 26,0 C 26,4 C 67 % 1009,7 hPa 0,0 l/m 3,0 km/h (1 Bft) W-NW 296 0 min 0,000 mm 91 W/m 19,4 C 26,0 C 11,3 km/h (2 Bft) 100 %
18.08.2017 16:40 25,6 C 25,6 C 26,0 C 67 % 1009,4 hPa 0,0 l/m 7,7 km/h (2 Bft) NW 313 0 min 0,000 mm 18 W/m 19,0 C 25,3 C 20,9 km/h (4 Bft) 100 %
18.08.2017 16:50 24,6 C 24,6 C 25,6 C 72 % 1010,7 hPa 0,8 l/m 17,9 km/h (3 Bft) W-SW 250 0 min 0,000 mm 26 W/m 19,2 C 22,4 C 30,6 km/h (5 Bft) 100 %
18.08.2017 17:00 22,3 C 22,3 C 24,6 C 80 % 1010,3 hPa 1,4 l/m 6,1 km/h (2 Bft) S 178 0 min 0,102 mm 56 W/m 18,7 C 22,3 C 22,5 km/h (4 Bft) 100 %
18.08.2017 17:10 20,9 C 20,9 C 22,3 C 86 % 1010,5 hPa 0,0 l/m 4,6 km/h (1 Bft) SO 137 0 min 0,000 mm 62 W/m 18,5 C 20,9 C 24,1 km/h (4 Bft) 100 %
18.08.2017 17:20 19,8 C 19,8 C 20,9 C 87 % 1010,4 hPa 0,0 l/m 3,3 km/h (1 Bft) SW 215 0 min 0,000 mm 116 W/m 17,6 C 19,8 C 20,9 km/h (4 Bft) 100 %
18.08.2017 17:30 19,7 C 19,7 C 19,8 C 88 % 1010,1 hPa 0,0 l/m 0,0 km/h (0 Bft) S-SW 201 10 min 0,000 mm 202 W/m 17,7 C 19,7 C 0,0 km/h (0 Bft) 100 %
18.08.2017 17:40 19,9 C 19,7 C 19,9 C 88 % 1010,4 hPa 0,0 l/m 0,0 km/h (0 Bft) S-SW 193 10 min 0,000 mm 179 W/m 17,8 C 19,9 C 1,6 km/h (1 Bft) 99 %
18.08.2017 17:50 20,0 C 19,9 C 20,1 C 87 % 1011,1 hPa 0,0 l/m 8,9 km/h (2 Bft) W 269 0 min 0,000 mm 46 W/m 17,8 C 19,0 C 53,1 km/h (7 Bft) 100 %
18.08.2017 18:00 19,8 C 19,8 C 20,0 C 81 % 1010,9 hPa 0,0 l/m 20,0 km/h (4 Bft) NW 309 0 min 0,076 mm 42 W/m 16,4 C 15,9 C 41,8 km/h (6 Bft) 100 %
18.08.2017 18:10 19,6 C 19,6 C 19,8 C 78 % 1011,0 hPa 0,0 l/m 15,6 km/h (3 Bft) W-NW 298 0 min 0,000 mm 58 W/m 15,7 C 16,6 C 35,4 km/h (5 Bft) 100 %
18.08.2017 18:20 19,5 C 19,5 C 19,6 C 78 % 1011,2 hPa 0,0 l/m 14,6 km/h (3 Bft) W-NW 296 0 min 0,000 mm 47 W/m 15,6 C 16,7 C 43,5 km/h (6 Bft) 100 %
18.08.2017 18:30 19,5 C 19,4 C 19,6 C 78 % 1011,8 hPa 0,0 l/m 12,3 km/h (3 Bft) W 267 0 min 0,000 mm 23 W/m 15,6 C 17,4 C 29,0 km/h (5 Bft) 100 %
18.08.2017 18:40 19,4 C 19,4 C 19,5 C 80 % 1012,0 hPa 0,0 l/m 6,6 km/h (2 Bft) W-NW 293 0 min 0,000 mm 14 W/m 15,9 C 19,3 C 27,4 km/h (4 Bft) 100 %
18.08.2017 18:50 19,4 C 19,3 C 19,4 C 78 % 1012,7 hPa 0,0 l/m 6,2 km/h (2 Bft) W-SW 250 0 min 0,000 mm 12 W/m 15,5 C 19,4 C 24,1 km/h (4 Bft) 100 %
18.08.2017 19:00 19,3 C 19,3 C 19,4 C 80 % 1012,5 hPa 0,0 l/m 8,6 km/h (2 Bft) W-NW 302 0 min 0,051 mm 35 W/m 15,8 C 18,4 C 25,7 km/h (4 Bft) 100 %
18.08.2017 19:10 19,1 C 19,1 C 19,3 C 82 % 1012,9 hPa 0,2 l/m 10,9 km/h (2 Bft) W 281 0 min 0,000 mm 14 W/m 16,0 C 17,3 C 22,5 km/h (4 Bft) 100 %
18.08.2017 19:20 18,6 C 18,6 C 19,1 C 83 % 1012,9 hPa 0,0 l/m 13,1 km/h (3 Bft) W 273 0 min 0,000 mm 5 W/m 15,7 C 16,1 C 30,6 km/h (5 Bft) 100 %
18.08.2017 19:30 18,2 C 18,2 C 18,6 C 84 % 1013,0 hPa 0,4 l/m 11,4 km/h (2 Bft) NW 306 0 min 0,000 mm 0 W/m 15,4 C 16,2 C 29,0 km/h (5 Bft) 100 %
18.08.2017 19:40 17,8 C 17,8 C 18,2 C 86 % 1013,2 hPa 0,6 l/m 1,4 km/h (1 Bft) W 268 0 min 0,000 mm 0 W/m 15,4 C 17,8 C 14,5 km/h (3 Bft) 100 %
18.08.2017 19:50 17,5 C 17,5 C 17,8 C 87 % 1013,3 hPa 0,2 l/m 0,5 km/h (0 Bft) W-NW 290 0 min 0,000 mm 0 W/m 15,3 C 17,5 C 8,0 km/h (2 Bft) 100 %
18.08.2017 20:00 17,2 C 17,2 C 17,5 C 88 % 1012,3 hPa 0,4 l/m 0,0 km/h (0 Bft) W-NW 290 0 min 0,025 mm 0 W/m 15,2 C 17,2 C 0,0 km/h (0 Bft) 100 %
18.08.2017 20:10 16,9 C 16,9 C 17,2 C 88 % 1012,3 hPa 0,2 l/m 0,0 km/h (0 Bft) W-NW 290 0 min 0,000 mm 0 W/m 14,9 C 16,9 C 0,0 km/h (0 Bft) 100 %
18.08.2017 20:20 16,8 C 16,8 C 16,9 C 88 % 1012,6 hPa 0,0 l/m 0,0 km/h (0 Bft) W-NW 290 0 min 0,000 mm 0 W/m 14,8 C 16,8 C 0,0 km/h (0 Bft) 100 %
18.08.2017 20:30 16,7 C 16,7 C 16,8 C 88 % 1012,4 hPa 0,0 l/m 0,0 km/h (0 Bft) W-NW 290 0 min 0,000 mm 11 W/m 14,7 C 16,7 C 0,0 km/h (0 Bft) 99 %
18.08.2017 20:40 16,5 C 16,5 C 16,7 C 88 % 1012,4 hPa 0,0 l/m 0,0 km/h (0 Bft) W-NW 289 0 min 0,000 mm 0 W/m 14,5 C 16,5 C 1,6 km/h (1 Bft) 100 %
18.08.2017 20:50 16,4 C 16,4 C 16,5 C 88 % 1013,1 hPa 0,0 l/m 0,4 km/h (0 Bft) W 277 0 min 0,000 mm 0 W/m 14,4 C 16,4 C 8,0 km/h (2 Bft) 100 %
18.08.2017 21:00 16,4 C 16,4 C 16,5 C 88 % 1013,7 hPa 0,0 l/m 4,1 km/h (1 Bft) W 281 0 min 0,000 mm 0 W/m 14,4 C 16,4 C 9,7 km/h (2 Bft) 100 %
18.08.2017 21:10 16,4 C 16,4 C 16,4 C 88 % 1013,9 hPa 0,0 l/m 3,2 km/h (1 Bft) W 270 0 min 0,000 mm 0 W/m 14,4 C 16,4 C 11,3 km/h (2 Bft) 100 %
18.08.2017 21:20 16,4 C 16,4 C 16,4 C 88 % 1013,9 hPa 0,0 l/m 1,6 km/h (1 Bft) W-SW 247 0 min 0,000 mm 0 W/m 14,4 C 16,4 C 4,8 km/h (1 Bft) 100 %
18.08.2017 21:30 16,4 C 16,4 C 16,4 C 88 % 1014,1 hPa 0,0 l/m 1,6 km/h (1 Bft) W-SW 247 0 min 0,000 mm 0 W/m 14,4 C 16,4 C 6,4 km/h (2 Bft) 100 %
18.08.2017 21:40 16,4 C 16,4 C 16,4 C 88 % 1014,4 hPa 0,0 l/m 6,4 km/h (2 Bft) W-SW 247 0 min 0,000 mm 0 W/m 14,4 C 16,4 C 16,1 km/h (3 Bft) 100 %
18.08.2017 21:50 16,4 C 16,3 C 16,4 C 88 % 1014,4 hPa 0,0 l/m 3,2 km/h (1 Bft) SW 225 0 min 0,000 mm 0 W/m 14,4 C 16,4 C 11,3 km/h (2 Bft) 100 %
18.08.2017 22:00 16,3 C 16,3 C 16,4 C 88 % 1014,4 hPa 0,0 l/m 6,4 km/h (2 Bft) SW 225 0 min 0,025 mm 0 W/m 14,3 C 16,3 C 16,1 km/h (3 Bft) 100 %
18.08.2017 22:10 16,2 C 16,2 C 16,3 C 89 % 1014,4 hPa 0,0 l/m 1,6 km/h (1 Bft) W-SW 247 0 min 0,000 mm 0 W/m 14,4 C 16,2 C 8,0 km/h (2 Bft) 100 %
18.08.2017 22:20 16,2 C 16,2 C 16,2 C 88 % 1014,4 hPa 0,0 l/m 3,2 km/h (1 Bft) SW 225 0 min 0,000 mm 0 W/m 14,2 C 16,2 C 14,5 km/h (3 Bft) 100 %
18.08.2017 22:30 16,1 C 16,1 C 16,2 C 88 % 1014,5 hPa 0,0 l/m 3,2 km/h (1 Bft) W-SW 247 0 min 0,000 mm 0 W/m 14,1 C 16,1 C 9,7 km/h (2 Bft) 100 %
18.08.2017 22:40 16,0 C 16,0 C 16,1 C 89 % 1014,6 hPa 0,0 l/m 1,6 km/h (1 Bft) SW 225 0 min 0,000 mm 0 W/m 14,2 C 16,0 C 9,7 km/h (2 Bft) 100 %
18.08.2017 22:50 16,0 C 16,0 C 16,0 C 89 % 1014,6 hPa 0,0 l/m 4,8 km/h (1 Bft) S-SW 202 0 min 0,000 mm 0 W/m 14,2 C 16,0 C 12,9 km/h (3 Bft) 100 %
18.08.2017 23:00 15,9 C 15,9 C 16,0 C 89 % 1014,7 hPa 0,0 l/m 6,4 km/h (2 Bft) S-SW 202 0 min 0,025 mm 0 W/m 14,1 C 15,9 C 14,5 km/h (3 Bft) 99 %
18.08.2017 23:10 16,0 C 15,9 C 16,0 C 89 % 1015,0 hPa 0,0 l/m 4,8 km/h (1 Bft) S-SW 202 0 min 0,000 mm 0 W/m 14,2 C 16,0 C 11,3 km/h (2 Bft) 100 %
18.08.2017 23:20 16,0 C 15,9 C 16,0 C 89 % 1015,1 hPa 0,0 l/m 4,8 km/h (1 Bft) S 180 0 min 0,000 mm 0 W/m 14,2 C 16,0 C 16,1 km/h (3 Bft) 100 %
18.08.2017 23:30 16,0 C 16,0 C 16,1 C 89 % 1015,3 hPa 0,0 l/m 4,8 km/h (1 Bft) S-SW 202 0 min 0,000 mm 0 W/m 14,2 C 16,0 C 16,1 km/h (3 Bft) 100 %
18.08.2017 23:40 16,1 C 16,0 C 16,1 C 89 % 1015,5 hPa 0,0 l/m 1,6 km/h (1 Bft) S 180 0 min 0,000 mm 0 W/m 14,3 C 16,1 C 9,7 km/h (2 Bft) 100 %
18.08.2017 23:50 16,1 C 16,1 C 16,1 C 89 % 1015,5 hPa 0,0 l/m 1,6 km/h (1 Bft) S 180 0 min 0,000 mm 0 W/m 14,3 C 16,1 C 9,7 km/h (2 Bft) 100 %
_ Min-Zeit 06:00 06:00 06:10 13:40 16:40 - 00:00 - - - - - 06:00 06:00 00:00 13:10
Minimum _ 15,4 C 15,4 C 15,4 C 57 % 1009,4 hPa - 0,0 km/h (0 Bft) - - - - - 13,6 C 15,4 C 0,0 km/h (0 Bft) 91 %
_ Max-Zeit 13:30 13:30 13:30 04:50 00:00 17:00 18:00 - - 08:50 00:10 14:30 11:40 15:40 17:50 00:00
Maximum _ 27,9 C 27,8 C 27,9 C 89 % 1016,0 hPa 1,4 l/m 20,0 km/h
NW (4 Bft)
- - 10 min 3,175 mm 942 W/m 20,4 C 27,9 C 53,1 km/h
W (7 Bft)
100 %
Durchschnitt _ 19,7 C 19,6 C 19,9 C 81 % 1013,6 hPa #4,2 l/m 3,0 km/h (1 Bft) SW - #7:20 h #6,044 mm 311 W/m 16,3 C 19,6 C 9,4 km/h (2 Bft) 100 %
PRIVATE WETTERSTATION BILLIGHEIM-ALLFELD - www.neckar-odenwald-wetter.de - Holger Sonntag